When you browse on this site, cookies collect data to enhance your experience and personalize the content and advertising you see.
Visit our Privacy Policy to learn more. By continuing to use the site, you agree to this use of cookies and data.
  • In Austria
  • List of Countries
  • For 7 days
  • Water Temperature
  • Satellite Maps
  • Weather Map
  • News
  • Weather Widgets
  • user-avatar
    Login

    Hourly Weather Riomaggiore

    Today, 23 April, Tuesday

    Time Temperature Precipitation Wind Pressure Humidity
    00:00 +13°C° 3 mm 3 mps 744 mmHg 91%
    01:00 +13°C° 3 mm 3 mps 744 mmHg 92%
    02:00 +13°C° 1.2 mm 3 mps 743 mmHg 92%
    03:00 +13°C° 1.2 mm 3 mps 743 mmHg 91%
    04:00 +14°C° 1.2 mm 2 mps 742 mmHg 91%
    05:00 +14°C° 0.2 mm 2 mps 742 mmHg 90%
    06:00 +13°C° 0.2 mm 3 mps 742 mmHg 89%
    07:00 +14°C° 0.2 mm 3 mps 742 mmHg 88%
    08:00 +16°C° 0.1 mm 3 mps 742 mmHg 83%
    09:00 +17°C° 0.1 mm 3 mps 743 mmHg 77%
    10:00 +19°C° 0.1 mm 3 mps 743 mmHg 72%
    11:00 +17°C° 1.4 mm 3 mps 743 mmHg 78%
    12:00 +16°C° 1.4 mm 3 mps 743 mmHg 84%
    13:00 +14°C° 1.4 mm 4 mps 743 mmHg 90%
    14:00 +14°C° 0.9 mm 4 mps 743 mmHg 90%
    15:00 +14°C° 0.9 mm 4 mps 743 mmHg 91%
    16:00 +14°C° 0.9 mm 4 mps 743 mmHg 92%
    17:00 +14°C° 0.6 mm 4 mps 743 mmHg 93%
    18:00 +13°C° 0.6 mm 4 mps 744 mmHg 95%
    19:00 +13°C° 0.6 mm 3 mps 744 mmHg 96%
    20:00 +13°C° 0.5 mm 3 mps 745 mmHg 96%
    21:00 +13°C° 0.5 mm 3 mps 745 mmHg 96%
    22:00 +13°C° 0.5 mm 3 mps 746 mmHg 97%
    23:00 +13°C° 1.6 mm 3 mps 746 mmHg 97%

    Tomorrow, 24 April, Wednesday

    Time Temperature Precipitation Wind Pressure Humidity
    00:00 +13°C° 1.6 mm 3 mps 747 mmHg 97%
    01:00 +13°C° 1.6 mm 3 mps 747 mmHg 97%
    02:00 +13°C° 0.3 mm 4 mps 748 mmHg 97%
    03:00 +13°C° 0.3 mm 4 mps 748 mmHg 97%
    04:00 +13°C° 0.3 mm 4 mps 748 mmHg 97%
    05:00 +13°C° 0.5 mm 4 mps 749 mmHg 96%
    06:00 +13°C° 0.5 mm 4 mps 749 mmHg 96%
    07:00 +13°C° 0.5 mm 5 mps 750 mmHg 96%
    08:00 +14°C° 0.2 mm 5 mps 750 mmHg 93%
    09:00 +15°C° 0.2 mm 5 mps 751 mmHg 90%
    10:00 +15°C° 0.2 mm 5 mps 751 mmHg 87%
    11:00 +15°C° 0.1 mm 5 mps 751 mmHg 87%
    12:00 +15°C° 0.1 mm 5 mps 751 mmHg 87%
    13:00 +15°C° 0.1 mm 5 mps 751 mmHg 87%
    14:00 +16°C° 0 mm 5 mps 751 mmHg 85%
    15:00 +16°C° 0 mm 5 mps 751 mmHg 82%
    16:00 +16°C° 0 mm 5 mps 752 mmHg 80%
    17:00 +17°C° 0.1 mm 4 mps 752 mmHg 84%
    18:00 +16°C° 0.1 mm 3 mps 752 mmHg 89%
    19:00 +14°C° 0.1 mm 3 mps 752 mmHg 93%
    20:00 +14°C° 0 mm 2 mps 752 mmHg 94%
    21:00 +14°C° 0 mm 2 mps 753 mmHg 95%
    22:00 +13°C° 0 mm 2 mps 753 mmHg 95%
    23:00 +13°C° 0 mm 2 mps 753 mmHg 94%

    Day after tomorrow, 25 April, Thursday

    Time Temperature Precipitation Wind Pressure Humidity
    00:00 +13°C° 0 mm 2 mps 753 mmHg 92%
    01:00 +13°C° 0 mm 2 mps 753 mmHg 91%
    02:00 +13°C° 0 mm 2 mps 753 mmHg 89%
    03:00 +13°C° 0 mm 2 mps 753 mmHg 88%
    04:00 +13°C° 0 mm 1 mps 753 mmHg 86%
    05:00 +14°C° 0.3 mm 2 mps 753 mmHg 86%
    06:00 +15°C° 0.3 mm 2 mps 754 mmHg 85%
    07:00 +15°C° 0.3 mm 2 mps 754 mmHg 85%
    08:00 +18°C° 0 mm 1 mps 754 mmHg 78%
    09:00 +19°C° 0 mm 1 mps 754 mmHg 71%
    10:00 +21°C° 0 mm 1 mps 754 mmHg 64%
    11:00 +22°C° 0 mm 1 mps 754 mmHg 60%
    12:00 +23°C° 0 mm 2 mps 754 mmHg 57%
    13:00 +24°C° 0 mm 3 mps 754 mmHg 54%
    14:00 +24°C° 0 mm 2 mps 753 mmHg 54%
    15:00 +23°C° 0 mm 2 mps 753 mmHg 54%
    16:00 +23°C° 0 mm 2 mps 752 mmHg 54%
    17:00 +20°C° 0 mm 2 mps 752 mmHg 61%
    18:00 +20°C° 0 mm 1 mps 752 mmHg 67%
    19:00 +18°C° 0 mm 1 mps 752 mmHg 73%
    20:00 +16°C° 0 mm 1 mps 752 mmHg 71%
    21:00 +16°C° 0 mm 1 mps 753 mmHg 70%
    22:00 +15°C° 0 mm 1 mps 753 mmHg 69%
    23:00 +15°C° 0 mm 1 mps 753 mmHg 69%

    26 April, Friday

    Time Temperature Precipitation Wind Pressure Humidity
    00:00 +14°C° 0 mm 1 mps 753 mmHg 69%
    01:00 +14°C° 0 mm 1 mps 752 mmHg 69%
    02:00 +14°C° 0 mm 1 mps 752 mmHg 73%
    03:00 +13°C° 0 mm 1 mps 752 mmHg 77%
    04:00 +13°C° 0 mm 1 mps 752 mmHg 82%
    05:00 +14°C° 0 mm 1 mps 752 mmHg 83%
    06:00 +14°C° 0 mm 1 mps 752 mmHg 85%
    07:00 +15°C° 0 mm 1 mps 752 mmHg 87%
    08:00 +16°C° 0 mm 1 mps 752 mmHg 79%
    09:00 +17°C° 0 mm 2 mps 752 mmHg 72%
    10:00 +18°C° 0 mm 2 mps 752 mmHg 64%
    11:00 +17°C° 0.8 mm 3 mps 751 mmHg 73%
    12:00 +16°C° 0.8 mm 3 mps 751 mmHg 82%
    13:00 +14°C° 0.8 mm 4 mps 750 mmHg 91%
    14:00 +13°C° 1.4 mm 4 mps 750 mmHg 91%
    15:00 +13°C° 1.4 mm 4 mps 750 mmHg 92%
    16:00 +13°C° 1.4 mm 4 mps 749 mmHg 92%
    17:00 +12°C° 1 mm 4 mps 750 mmHg 92%
    18:00 +12°C° 1 mm 3 mps 750 mmHg 91%
    19:00 +12°C° 1 mm 3 mps 750 mmHg 91%
    20:00 +11°C° 0 mm 3 mps 750 mmHg 92%
    21:00 +11°C° 0 mm 3 mps 750 mmHg 93%
    22:00 +12°C° 0 mm 2 mps 751 mmHg 95%
    23:00 +10°C° 0 mm 2 mps 750 mmHg 94%

    27 April, Saturday

    Time Temperature Precipitation Wind Pressure Humidity
    00:00 +10°C° 0 mm 2 mps 750 mmHg 93%
    01:00 +10°C° 0 mm 2 mps 750 mmHg 92%
    02:00 +9°C° 0 mm 2 mps 750 mmHg 88%
    03:00 +9°C° 0 mm 2 mps 750 mmHg 85%
    04:00 +9°C° 0 mm 2 mps 750 mmHg 81%
    05:00 +10°C° 0 mm 2 mps 751 mmHg 79%
    06:00 +12°C° 0 mm 2 mps 751 mmHg 77%
    07:00 +13°C° 0 mm 2 mps 751 mmHg 75%
    08:00 +15°C° 0 mm 2 mps 752 mmHg 67%
    09:00 +18°C° 0 mm 2 mps 752 mmHg 59%
    10:00 +20°C° 0 mm 2 mps 752 mmHg 51%
    11:00 +20°C° 0 mm 2 mps 752 mmHg 51%
    12:00 +21°C° 0 mm 3 mps 753 mmHg 51%
    13:00 +21°C° 0 mm 3 mps 753 mmHg 50%
    14:00 +21°C° 0 mm 3 mps 753 mmHg 54%
    15:00 +20°C° 0 mm 2 mps 753 mmHg 57%
    16:00 +19°C° 0 mm 2 mps 753 mmHg 61%
    17:00 +19°C° 0 mm 1 mps 753 mmHg 68%
    18:00 +16°C° 0 mm 1 mps 753 mmHg 76%
    19:00 +15°C° 0 mm 1 mps 753 mmHg 83%
    20:00 +14°C° 0 mm 1 mps 754 mmHg 83%
    21:00 +14°C° 0 mm 1 mps 755 mmHg 82%
    22:00 +13°C° 0 mm 1 mps 755 mmHg 82%
    23:00 +13°C° 0 mm 1 mps 756 mmHg 79%

    28 April, Sunday

    Time Temperature Precipitation Wind Pressure Humidity
    00:00 +13°C° 0 mm 2 mps 756 mmHg 77%
    01:00 +13°C° 0 mm 2 mps 756 mmHg 75%
    02:00 +13°C° 0 mm 2 mps 756 mmHg 73%
    03:00 +12°C° 0 mm 2 mps 757 mmHg 72%
    04:00 +12°C° 0 mm 2 mps 757 mmHg 71%
    05:00 +13°C° 0 mm 2 mps 757 mmHg 70%
    06:00 +14°C° 0 mm 2 mps 757 mmHg 69%
    07:00 +14°C° 0 mm 2 mps 757 mmHg 69%
    08:00 +17°C° 0 mm 2 mps 757 mmHg 61%
    09:00 +20°C° 0 mm 1 mps 757 mmHg 54%
    10:00 +22°C° 0 mm 1 mps 758 mmHg 47%
    11:00 +21°C° 0 mm 2 mps 757 mmHg 46%
    12:00 +21°C° 0 mm 2 mps 757 mmHg 44%
    13:00 +21°C° 0 mm 3 mps 757 mmHg 43%
    14:00 +21°C° 0 mm 2 mps 756 mmHg 44%
    15:00 +20°C° 0 mm 2 mps 756 mmHg 45%
    16:00 +20°C° 0 mm 2 mps 755 mmHg 46%
    17:00 +18°C° 0 mm 2 mps 755 mmHg 53%
    18:00 +18°C° 0 mm 1 mps 755 mmHg 59%
    19:00 +15°C° 0 mm 1 mps 755 mmHg 66%
    20:00 +15°C° 0 mm 1 mps 755 mmHg 65%
    21:00 +14°C° 0 mm 1 mps 755 mmHg 64%
    22:00 +14°C° 0 mm 1 mps 756 mmHg 63%
    23:00 +13°C° 0 mm 1 mps 755 mmHg 63%
    Show more